| time (UTC) | temp F | wind direction | speed MPH | gust MPH | rain 1hr in | rain 24hr in | rain mn in | humidity % | barometer mb |
| 20260506191244 | 62 | 51 | 2.0 | 10.0 | 0.01 | 0.07 | 0.07 | 91 | 1007.2 |
| 20260506190745 | 62 | 249 | 2.0 | 10.0 | 0.01 | 0.07 | 0.07 | 91 | 1007.1 |
| 20260506190245 | 62 | 80 | 1.0 | 5.0 | 0.01 | 0.07 | 0.07 | 91 | 1007.2 |
| 20260506185745 | 62 | 29 | 1.0 | 4.0 | 0.01 | 0.07 | 0.07 | 90 | 1007.1 |
| 20260506185245 | 63 | 244 | 1.0 | 4.0 | 0.01 | 0.07 | 0.07 | 90 | 1007.2 |
| 20260506184746 | 63 | 64 | 1.0 | 4.0 | 0.01 | 0.07 | 0.07 | 90 | 1007.3 |
| 20260506184245 | 63 | 146 | 1.0 | 5.0 | 0.00 | 0.06 | 0.06 | 89 | 1007.3 |
| 20260506183745 | 63 | 207 | 1.0 | 5.0 | 0.00 | 0.06 | 0.06 | 89 | 1007.2 |
| 20260506183245 | 63 | 296 | 1.0 | 4.0 | 0.00 | 0.06 | 0.06 | 89 | 1007.2 |
| 20260506182745 | 63 | 169 | 1.0 | 4.0 | 0.00 | 0.06 | 0.06 | 89 | 1007.3 |
| 20260506182244 | 63 | 164 | 1.0 | 4.0 | 0.00 | 0.06 | 0.06 | 88 | 1007.4 |
| 20260506181746 | 63 | 147 | 1.0 | 5.0 | 0.00 | 0.06 | 0.06 | 88 | 1007.4 |
| 20260506181245 | 64 | 228 | 1.0 | 6.0 | 0.00 | 0.06 | 0.06 | 88 | 1007.4 |
| 20260506180744 | 64 | 65 | 1.0 | 6.0 | 0.01 | 0.06 | 0.06 | 88 | 1007.5 |
| 20260506180245 | 64 | 61 | 1.0 | 5.0 | 0.01 | 0.06 | 0.06 | 89 | 1007.5 |
| 20260506175745 | 64 | 39 | 2.0 | 5.0 | 0.01 | 0.06 | 0.06 | 89 | 1007.7 |
| 20260506175244 | 64 | 87 | 2.0 | 5.0 | 0.01 | 0.06 | 0.06 | 89 | 1007.7 |
| 20260506174744 | 64 | 234 | 2.0 | 5.0 | 0.01 | 0.06 | 0.06 | 89 | 1007.6 |
| 20260506174245 | 64 | 51 | 2.0 | 4.0 | 0.02 | 0.06 | 0.06 | 90 | 1007.7 |
| 20260506173746 | 64 | 43 | 1.0 | 4.0 | 0.02 | 0.06 | 0.06 | 91 | 1007.6 |
| 20260506173459 | 64 | 217 | 1.0 | 5.0 | 0.03 | 0.06 | 0.06 | 91 | 1007.6 |
| 20260506172748 | 64 | 70 | 1.0 | 5.0 | 0.03 | 0.06 | 0.06 | 91 | 1007.6 |
| 20260506172505 | 63 | 40 | 1.0 | 5.0 | 0.03 | 0.06 | 0.06 | 91 | 1007.6 |
| 20260506171745 | 63 | 211 | 1.0 | 5.0 | 0.04 | 0.06 | 0.06 | 91 | 1007.6 |
| 20260506171242 | 63 | 60 | 1.0 | 5.0 | 0.05 | 0.06 | 0.06 | 90 | 1007.6 |
| 20260506170742 | 63 | 145 | 1.0 | 5.0 | 0.04 | 0.05 | 0.05 | 90 | 1007.6 |
| 20260506165741 | 63 | 105 | 1.0 | 8.0 | 0.05 | 0.05 | 0.05 | 89 | 1007.5 |
| 20260506165241 | 63 | 49 | 2.0 | 10.0 | 0.05 | 0.05 | 0.05 | 89 | 1007.7 |
| 20260506164747 | 63 | 70 | 2.0 | 10.0 | 0.05 | 0.05 | 0.05 | 88 | 1008.1 |
| 20260506164241 | 63 | 161 | 1.0 | 7.0 | 0.04 | 0.04 | 0.04 | 88 | 1008.3 |
| 20260506164009 | 63 | 211 | 2.0 | 8.0 | 0.04 | 0.04 | 0.04 | 87 | 1008.3 |
| 20260506163244 | 63 | 51 | 2.0 | 8.0 | 0.03 | 0.03 | 0.03 | 87 | 1008.4 |
| 20260506162958 | 63 | 229 | 2.0 | 6.0 | 0.03 | 0.03 | 0.03 | 86 | 1008.6 |
| 20260506162236 | 64 | 250 | 2.0 | 6.0 | 0.02 | 0.02 | 0.03 | 85 | 1008.7 |
| 20260506161734 | 64 | 59 | 1.0 | 5.0 | 0.02 | 0.02 | 0.02 | 85 | 1008.7 |
| 20260506161234 | 65 | 96 | 1.0 | 5.0 | 0.01 | 0.01 | 0.02 | 83 | 1008.7 |
| 20260506160733 | 65 | 67 | 1.0 | 6.0 | 0.01 | 0.01 | 0.01 | 83 | 1008.9 |
| 20260506160245 | 65 | 230 | 1.0 | 6.0 | 0.01 | 0.01 | 0.01 | 82 | 1009.1 |
| 20260506155736 | 65 | 36 | 1.0 | 6.0 | 0.00 | 0.00 | 0.00 | 81 | 1009.1 |
| 20260506155502 | 66 | 109 | 2.0 | 8.0 | 0.00 | 0.00 | 0.00 | 80 | 1009.2 |
| 20260506154730 | 66 | 71 | 1.0 | 8.0 | 0.00 | 0.00 | 0.00 | 81 | 1009.1 |
| 20260506154230 | 67 | 86 | 1.0 | 5.0 | 0.00 | 0.00 | 0.00 | 81 | 1009.0 |
| 20260506153729 | 67 | 90 | 1.0 | 5.0 | 0.00 | 0.00 | 0.00 | 80 | 1008.8 |
| 20260506153227 | 67 | 100 | 1.0 | 5.0 | 0.00 | 0.00 | 0.00 | 79 | 1008.9 |
| 20260506152729 | 67 | 36 | 1.0 | 7.0 | 0.00 | 0.00 | 0.00 | 77 | 1008.9 |
| 20260506152227 | 67 | 231 | 1.0 | 7.0 | 0.00 | 0.00 | 0.00 | 76 | 1008.9 |
| 20260506151943 | 67 | 211 | 1.0 | 6.0 | 0.00 | 0.00 | 0.00 | 74 | 1008.9 |
| 20260506151457 | 68 | 181 | 1.0 | 5.0 | 0.00 | 0.00 | 0.00 | 74 | 1009.1 |
| 20260506150720 | 68 | 71 | 2.0 | 10.0 | 0.00 | 0.00 | 0.00 | 73 | 1009.2 |
| 20260506150214 | 68 | 46 | 2.0 | 8.0 | 0.00 | 0.00 | 0.00 | 71 | 1009.3 |
| 20260506145704 | 68 | 12 | 2.0 | 10.0 | 0.00 | 0.00 | 0.00 | 71 | 1009.2 |
| 20260506145158 | 69 | 38 | 2.0 | 7.0 | 0.00 | 0.00 | 0.00 | 71 | 1009.2 |
| 20260506144652 | 69 | 36 | 2.0 | 7.0 | 0.00 | 0.00 | 0.00 | 71 | 1009.1 |
| 20260506144142 | 69 | 233 | 2.0 | 7.0 | 0.00 | 0.00 | 0.00 | 71 | 1009.2 |
| 20260506143636 | 69 | 50 | 2.0 | 7.0 | 0.00 | 0.00 | 0.00 | 70 | 1009.3 |
| 20260506143354 | 69 | 51 | 2.0 | 7.0 | 0.00 | 0.00 | 0.00 | 71 | 1009.0 |
| 20260506142620 | 69 | 63 | 2.0 | 13.0 | 0.00 | 0.00 | 0.00 | 71 | 1009.0 |
| 20260506142114 | 68 | 278 | 2.0 | 13.0 | 0.00 | 0.00 | 0.00 | 72 | 1008.9 |
| 20260506141609 | 68 | 232 | 3.0 | 13.0 | 0.00 | 0.00 | 0.00 | 71 | 1009.0 |
| 20260506141058 | 68 | 190 | 3.0 | 13.0 | 0.00 | 0.00 | 0.00 | 71 | 1009.0 |
| 20260506140557 | 68 | 204 | 2.0 | 6.0 | 0.00 | 0.00 | 0.00 | 71 | 1009.0 |
| 20260506140107 | 68 | 191 | 2.0 | 6.0 | 0.00 | 0.00 | 0.00 | 71 | 1009.0 |
| 20260506135554 | 68 | 183 | 2.0 | 6.0 | 0.00 | 0.00 | 0.00 | 72 | 1009.1 |
| 20260506135316 | 68 | 198 | 2.0 | 6.0 | 0.00 | 0.00 | 0.00 | 72 | 1009.2 |
| 20260506134554 | 68 | 59 | 2.0 | 12.0 | 0.00 | 0.00 | 0.00 | 73 | 1009.2 |
| 20260506134056 | 67 | 211 | 3.0 | 12.0 | 0.00 | 0.00 | 0.00 | 73 | 1009.1 |
| 20260506133551 | 67 | 75 | 3.0 | 15.0 | 0.00 | 0.00 | 0.00 | 73 | 1009.2 |
| 20260506133051 | 67 | 229 | 3.0 | 15.0 | 0.00 | 0.00 | 0.00 | 73 | 1009.5 |
| 20260506132547 | 67 | 189 | 2.0 | 10.0 | 0.00 | 0.00 | 0.00 | 74 | 1009.3 |
| 20260506132050 | 67 | 111 | 2.0 | 6.0 | 0.00 | 0.00 | 0.00 | 74 | 1009.1 |
| 20260506131550 | 66 | 86 | 1.0 | 5.0 | 0.00 | 0.00 | 0.00 | 75 | 1009.2 |
| 20260506131048 | 66 | 243 | 2.0 | 6.0 | 0.00 | 0.00 | 0.00 | 75 | 1009.3 |
| 20260506130548 | 66 | 38 | 2.0 | 6.0 | 0.00 | 0.00 | 0.00 | 75 | 1009.3 |
| 20260506130049 | 66 | 209 | 2.0 | 7.0 | 0.00 | 0.00 | 0.00 | 75 | 1009.3 |
| 20260506125549 | 66 | 84 | 2.0 | 7.0 | 0.00 | 0.00 | 0.00 | 75 | 1009.2 |
| 20260506125045 | 66 | 89 | 2.0 | 7.0 | 0.00 | 0.00 | 0.00 | 75 | 1009.1 |
| 20260506124543 | 66 | 47 | 2.0 | 11.0 | 0.00 | 0.00 | 0.00 | 75 | 1009.0 |
| 20260506124047 | 66 | 90 | 2.0 | 11.0 | 0.00 | 0.00 | 0.00 | 76 | 1008.9 |
| 20260506123544 | 66 | 121 | 2.0 | 11.0 | 0.00 | 0.00 | 0.00 | 76 | 1009.0 |
| 20260506123039 | 66 | 197 | 1.0 | 11.0 | 0.00 | 0.00 | 0.00 | 77 | 1008.9 |
| 20260506122540 | 65 | 250 | 2.0 | 7.0 | 0.00 | 0.00 | 0.00 | 77 | 1009.0 |
| 20260506122040 | 65 | 58 | 2.0 | 7.0 | 0.00 | 0.00 | 0.00 | 77 | 1009.1 |
| 20260506121539 | 65 | 36 | 2.0 | 6.0 | 0.00 | 0.00 | 0.00 | 77 | 1009.2 |
| 20260506121040 | 65 | 219 | 2.0 | 7.0 | 0.00 | 0.00 | 0.00 | 77 | 1009.2 |
| 20260506120540 | 65 | 66 | 2.0 | 8.0 | 0.00 | 0.00 | 0.00 | 77 | 1009.3 |
| 20260506120053 | 65 | 94 | 2.0 | 8.0 | 0.00 | 0.00 | 0.00 | 77 | 1009.3 |
| 20260506115544 | 65 | 54 | 1.0 | 9.0 | 0.00 | 0.00 | 0.00 | 77 | 1009.3 |
| 20260506115523 | 65 | 146 | 1.0 | 9.0 | 0.00 | 0.00 | 0.00 | 77 | 1009.4 |
| 20260506114541 | 65 | 217 | 1.0 | 9.0 | 0.00 | 0.00 | 0.00 | 78 | 1009.3 |
| 20260506114040 | 65 | 80 | 2.0 | 9.0 | 0.00 | 0.00 | 0.00 | 78 | 1009.4 |
| 20260506113534 | 65 | 229 | 2.0 | 6.0 | 0.00 | 0.00 | 0.00 | 78 | 1009.3 |
| 20260506113028 | 65 | 96 | 2.0 | 6.0 | 0.00 | 0.00 | 0.00 | 78 | 1009.3 |
| 20260506112524 | 65 | 30 | 1.0 | 6.0 | 0.00 | 0.00 | 0.00 | 78 | 1009.4 |
| 20260506112025 | 65 | 96 | 1.0 | 4.0 | 0.00 | 0.00 | 0.00 | 78 | 1009.3 |
| 20260506111524 | 65 | 196 | 1.0 | 4.0 | 0.00 | 0.00 | 0.00 | 79 | 1009.3 |
| 20260506111024 | 64 | 67 | 1.0 | 7.0 | 0.00 | 0.00 | 0.00 | 79 | 1009.3 |
| 20260506110537 | 64 | 243 | 1.0 | 7.0 | 0.00 | 0.00 | 0.00 | 79 | 1009.3 |
| 20260506110244 | 64 | 205 | 1.0 | 7.0 | 0.00 | 0.00 | 0.00 | 80 | 1009.3 |
| 20260506105520 | 64 | 152 | 1.0 | 7.0 | 0.00 | 0.00 | 0.00 | 80 | 1009.2 |
| 20260506105020 | 64 | 89 | 1.0 | 5.0 | 0.00 | 0.00 | 0.00 | 80 | 1009.2 |
| 20260506104515 | 64 | 105 | 1.0 | 5.0 | 0.00 | 0.00 | 0.00 | 80 | 1009.1 |
| 20260506104242 | 64 | 217 | 1.0 | 5.0 | 0.00 | 0.00 | 0.00 | 80 | 1009.2 |
| 20260506103514 | 63 | 152 | 1.0 | 6.0 | 0.00 | 0.00 | 0.00 | 81 | 1009.3 |
| 20260506103013 | 63 | 301 | 2.0 | 6.0 | 0.00 | 0.00 | 0.00 | 81 | 1009.2 |
| 20260506102515 | 63 | 108 | 1.0 | 6.0 | 0.00 | 0.00 | 0.00 | 81 | 1009.2 |
| 20260506102013 | 63 | 21 | 1.0 | 6.0 | 0.00 | 0.00 | 0.00 | 81 | 1009.2 |
| 20260506101512 | 63 | 18 | 1.0 | 6.0 | 0.00 | 0.00 | 0.00 | 81 | 1009.1 |
| 20260506101237 | 63 | 162 | 1.0 | 6.0 | 0.00 | 0.00 | 0.00 | 81 | 1009.1 |
| 20260506100504 | 63 | 246 | 1.0 | 6.0 | 0.00 | 0.00 | 0.00 | 81 | 1009.0 |
| 20260506095957 | 63 | 96 | 1.0 | 6.0 | 0.00 | 0.00 | 0.00 | 82 | 1009.1 |
| 20260506095716 | 63 | 198 | 1.0 | 5.0 | 0.00 | 0.00 | 0.00 | 82 | 1009.0 |
| 20260506094940 | 63 | 51 | 0.0 | 4.0 | 0.00 | 0.00 | 0.00 | 82 | 1008.9 |
| 20260506094441 | 63 | 246 | 1.0 | 4.0 | 0.00 | 0.00 | 0.00 | 82 | 1009.0 |
| 20260506093938 | 62 | 120 | 1.0 | 4.0 | 0.00 | 0.00 | 0.00 | 82 | 1008.9 |
| 20260506093440 | 62 | 67 | 1.0 | 4.0 | 0.00 | 0.00 | 0.00 | 82 | 1008.9 |
| 20260506093157 | 62 | 67 | 1.0 | 4.0 | 0.00 | 0.00 | 0.00 | 83 | 1009.1 |
| 20260506092436 | 62 | 46 | 0.0 | 3.0 | 0.00 | 0.00 | 0.00 | 83 | 1009.0 |
| 20260506092158 | 62 | 46 | 0.0 | 3.0 | 0.00 | 0.00 | 0.00 | 82 | 1009.1 |
| 20260506091437 | 62 | 46 | 0.0 | 2.0 | 0.00 | 0.00 | 0.00 | 82 | 1009.0 |
| 20260506090937 | 62 | 46 | 0.0 | 2.0 | 0.00 | 0.00 | 0.00 | 82 | 1009.2 |
| 20260506090432 | 62 | 46 | 0.0 | 2.0 | 0.00 | 0.00 | 0.00 | 82 | 1009.1 |
| 20260506085947 | 62 | 41 | 0.0 | 3.0 | 0.00 | 0.00 | 0.00 | 82 | 1009.2 |
| 20260506085936 | 62 | 46 | 1.0 | 3.0 | 0.00 | 0.00 | 0.00 | 82 | 1009.2 |
| 20260506084929 | 62 | 41 | 0.0 | 2.0 | 0.00 | 0.00 | 0.00 | 81 | 1009.2 |
| 20260506084436 | 62 | 40 | 0.0 | 2.0 | 0.00 | 0.00 | 0.00 | 82 | 1009.3 |
| 20260506083926 | 62 | 40 | 0.0 | 2.0 | 0.00 | 0.00 | 0.00 | 81 | 1009.3 |
| 20260506083426 | 62 | 34 | 1.0 | 4.0 | 0.00 | 0.00 | 0.00 | 81 | 1009.3 |
| 20260506082925 | 62 | 34 | 0.0 | 4.0 | 0.00 | 0.00 | 0.00 | 81 | 1009.3 |
| 20260506082428 | 63 | 200 | 0.0 | 2.0 | 0.00 | 0.00 | 0.00 | 80 | 1009.2 |
| 20260506081925 | 63 | 199 | 0.0 | 1.0 | 0.00 | 0.00 | 0.00 | 79 | 1009.4 |
| 20260506081424 | 63 | 199 | 0.0 | 2.0 | 0.00 | 0.00 | 0.00 | 79 | 1009.3 |
| 20260506080923 | 63 | 200 | 0.0 | 2.0 | 0.00 | 0.00 | 0.00 | 78 | 1009.3 |
| 20260506080421 | 63 | 199 | 0.0 | 3.0 | 0.00 | 0.00 | 0.00 | 78 | 1009.3 |
| 20260506073413 | 64 | 249 | 1.0 | 6.0 | 0.00 | 0.00 | 0.00 | 77 | 1009.4 |
| 20260506072915 | 64 | 169 | 0.0 | 3.0 | 0.00 | 0.00 | 0.00 | 76 | 1009.4 |
| 20260506072414 | 64 | 211 | 0.0 | 3.0 | 0.00 | 0.00 | 0.00 | 75 | 1009.4 |
| 20260506072133 | 64 | 211 | 0.0 | 4.0 | 0.00 | 0.00 | 0.00 | 75 | 1009.3 |
| 20260506071416 | 65 | 148 | 0.0 | 4.0 | 0.00 | 0.00 | 0.00 | 74 | 1009.3 |
| 20260506071135 | 65 | 151 | 0.0 | 4.0 | 0.00 | 0.00 | 0.00 | 74 | 1009.3 |
| 20260506070414 | 65 | 151 | 0.0 | 4.0 | 0.00 | 0.00 | 0.00 | 74 | 1009.4 |
| 20260506062414 | 66 | 227 | 1.0 | 4.0 | 0.00 | 0.00 | 0.00 | 71 | 1009.5 |
| 20260506061915 | 66 | 55 | 0.0 | 4.0 | 0.00 | 0.00 | 0.00 | 71 | 1009.5 |
| 20260506061643 | 66 | 55 | 1.0 | 4.0 | 0.00 | 0.00 | 0.00 | 70 | 1009.5 |
| 20260506060914 | 66 | 225 | 1.0 | 3.0 | 0.00 | 0.00 | 0.00 | 70 | 1009.5 |
| 20260506060414 | 66 | 96 | 1.0 | 6.0 | 0.00 | 0.00 | 0.00 | 70 | 1009.5 |
| 20260506051401 | 67 | 53 | 2.0 | 6.0 | 0.00 | 0.00 | 0.00 | 67 | 1010.0 |
| 20260506050904 | 67 | 207 | 1.0 | 6.0 | 0.00 | 0.00 | 0.00 | 67 | 1010.0 |
| 20260506050604 | 67 | 109 | 1.0 | 6.0 | 0.00 | 0.00 | 0.00 | 67 | 1010.1 |
| 20260506050458 | 67 | 92 | 1.0 | 6.0 | 0.00 | 0.00 | 0.00 | 67 | 1010.0 |
| 20260506044858 | 67 | 208 | 1.0 | 5.0 | 0.00 | 0.00 | 0.00 | 66 | 1010.1 |
| 20260506044354 | 67 | 152 | 2.0 | 9.0 | 0.00 | 0.00 | 0.00 | 66 | 1010.1 |
| 20260506043855 | 67 | 213 | 2.0 | 9.0 | 0.00 | 0.00 | 0.00 | 66 | 1010.1 |
| 20260506043355 | 67 | 117 | 2.0 | 7.0 | 0.00 | 0.00 | 0.00 | 66 | 1009.9 |
| 20260506042855 | 67 | 83 | 1.0 | 7.0 | 0.00 | 0.00 | 0.00 | 65 | 1010.0 |
| 20260506042356 | 67 | 263 | 1.0 | 5.0 | 0.00 | 0.00 | 0.00 | 65 | 1010.1 |
| 20260506041853 | 67 | 77 | 1.0 | 5.0 | 0.00 | 0.00 | 0.00 | 65 | 1010.0 |
| 20260506041351 | 67 | 221 | 1.0 | 4.0 | 0.00 | 0.00 | 0.00 | 65 | 1010.0 |
| 20260506040901 | 67 | 121 | 1.0 | 3.0 | 0.00 | 0.00 | 0.00 | 65 | 1010.0 |
| 20260506040346 | 68 | 71 | 1.0 | 6.0 | 0.00 | 0.00 | 0.00 | 65 | 1010.0 |
| 20260506035846 | 68 | 196 | 1.0 | 6.0 | 0.00 | 0.00 | 0.00 | 65 | 1009.9 |
| 20260506035347 | 68 | 5 | 1.0 | 5.0 | 0.00 | 0.00 | 0.00 | 65 | 1009.9 |
| 20260506035108 | 68 | 68 | 1.0 | 5.0 | 0.00 | 0.00 | 0.00 | 65 | 1009.9 |
| 20260506034346 | 68 | 242 | 1.0 | 9.0 | 0.00 | 0.00 | 0.00 | 64 | 1009.8 |
| 20260506033846 | 68 | 92 | 1.0 | 9.0 | 0.00 | 0.00 | 0.00 | 64 | 1010.0 |
| 20260506033345 | 68 | 113 | 1.0 | 9.0 | 0.00 | 0.00 | 0.00 | 63 | 1010.0 |
| 20260506032845 | 69 | 204 | 1.0 | 9.0 | 0.00 | 0.00 | 0.00 | 63 | 1009.9 |
| 20260506032344 | 69 | 204 | 1.0 | 4.0 | 0.00 | 0.00 | 0.00 | 62 | 1009.9 |
| 20260506031845 | 69 | 73 | 1.0 | 4.0 | 0.00 | 0.00 | 0.00 | 62 | 1009.9 |
| 20260506031608 | 69 | 56 | 1.0 | 4.0 | 0.00 | 0.00 | 0.00 | 61 | 1010.0 |
| 20260506031107 | 70 | 39 | 1.0 | 6.0 | 0.00 | 0.00 | 0.00 | 60 | 1009.9 |
| 20260506030346 | 70 | 40 | 1.0 | 6.0 | 0.00 | 0.00 | 0.00 | 60 | 1009.9 |
| 20260506025848 | 70 | 154 | 1.0 | 7.0 | 0.00 | 0.00 | 0.00 | 60 | 1009.9 |
| 20260506025337 | 70 | 153 | 2.0 | 7.0 | 0.00 | 0.00 | 0.00 | 59 | 1009.8 |
| 20260506025050 | 71 | 103 | 1.0 | 7.0 | 0.00 | 0.00 | 0.00 | 58 | 1009.7 |
| 20260506024324 | 71 | 220 | 2.0 | 4.0 | 0.00 | 0.00 | 0.00 | 57 | 1009.8 |
| 20260506023815 | 71 | 130 | 2.0 | 15.0 | 0.00 | 0.00 | 0.00 | 57 | 1009.8 |
| 20260506023309 | 71 | 215 | 1.0 | 15.0 | 0.00 | 0.00 | 0.00 | 56 | 1009.7 |
| 20260506022801 | 72 | 52 | 1.0 | 11.0 | 0.00 | 0.00 | 0.00 | 55 | 1009.7 |
| 20260506022251 | 72 | 132 | 2.0 | 11.0 | 0.00 | 0.00 | 0.00 | 55 | 1009.7 |
| 20260506021745 | 72 | 128 | 3.0 | 12.0 | 0.00 | 0.00 | 0.00 | 54 | 1009.7 |
| 20260506021239 | 72 | 220 | 3.0 | 13.0 | 0.00 | 0.00 | 0.00 | 53 | 1009.7 |
| 20260506020954 | 73 | 24 | 2.0 | 9.0 | 0.00 | 0.00 | 0.00 | 52 | 1009.7 |
| 20260506020449 | 73 | 211 | 2.0 | 9.0 | 0.00 | 0.00 | 0.00 | 52 | 1009.6 |
| 20260506015716 | 73 | 196 | 2.0 | 9.0 | 0.00 | 0.00 | 0.00 | 51 | 1009.7 |
| 20260506015206 | 73 | 292 | 2.0 | 9.0 | 0.00 | 0.00 | 0.00 | 50 | 1009.5 |
| 20260506014700 | 73 | 172 | 2.0 | 8.0 | 0.00 | 0.00 | 0.00 | 49 | 1009.6 |
| 20260506014155 | 73 | 239 | 2.0 | 8.0 | 0.00 | 0.00 | 0.00 | 49 | 1009.4 |
| 20260506013645 | 74 | 80 | 2.0 | 8.0 | 0.00 | 0.00 | 0.00 | 49 | 1009.4 |
| 20260506013139 | 74 | 234 | 2.0 | 7.0 | 0.00 | 0.00 | 0.00 | 48 | 1009.2 |
| 20260506012633 | 74 | 5 | 1.0 | 7.0 | 0.00 | 0.00 | 0.00 | 48 | 1009.2 |
| 20260506012123 | 74 | 169 | 1.0 | 7.0 | 0.00 | 0.00 | 0.00 | 48 | 1009.1 |
| 20260506011617 | 74 | 95 | 2.0 | 7.0 | 0.00 | 0.00 | 0.00 | 48 | 1009.0 |
| 20260506011113 | 74 | 17 | 2.0 | 7.0 | 0.00 | 0.00 | 0.00 | 47 | 1009.0 |
| 20260506010601 | 74 | 231 | 1.0 | 4.0 | 0.00 | 0.00 | 0.00 | 47 | 1008.9 |
| 20260506005548 | 75 | 216 | 2.0 | 13.0 | 0.00 | 0.00 | 0.00 | 47 | 1008.9 |
| 20260506005038 | 75 | 84 | 2.0 | 13.0 | 0.00 | 0.00 | 0.00 | 46 | 1008.9 |
| 20260506004800 | 75 | 60 | 2.0 | 13.0 | 0.00 | 0.00 | 0.00 | 45 | 1008.8 |
| 20260506004248 | 75 | 129 | 2.0 | 13.0 | 0.00 | 0.00 | 0.00 | 45 | 1008.8 |
| 20260506003739 | 75 | 101 | 2.0 | 8.0 | 0.00 | 0.00 | 0.00 | 44 | 1008.7 |
| 20260506003013 | 75 | 98 | 1.0 | 8.0 | 0.00 | 0.00 | 0.00 | 43 | 1008.7 |
| 20260506002505 | 75 | 220 | 1.0 | 8.0 | 0.00 | 0.00 | 0.00 | 43 | 1008.6 |
| 20260506001954 | 75 | 38 | 1.0 | 8.0 | 0.00 | 0.00 | 0.00 | 43 | 1008.5 |
| 20260506001449 | 75 | 210 | 1.0 | 7.0 | 0.00 | 0.00 | 0.00 | 43 | 1008.3 |
| 20260506000951 | 76 | 54 | 1.0 | 4.0 | 0.00 | 0.00 | 0.00 | 41 | 1008.3 |
| 20260506000432 | 76 | 69 | 1.0 | 4.0 | 0.00 | 0.00 | 0.00 | 40 | 1008.4 |
| 20260505235927 | 76 | 96 | 1.0 | 6.0 | 0.00 | 0.00 | 0.00 | 41 | 1008.3 |
| 20260505235420 | 77 | 97 | 1.0 | 6.0 | 0.00 | 0.00 | 0.00 | 39 | 1008.3 |
| 20260505235138 | 77 | 225 | 2.0 | 8.0 | 0.00 | 0.00 | 0.00 | 38 | 1008.3 |
| 20260505234404 | 78 | 62 | 2.0 | 8.0 | 0.00 | 0.00 | 0.00 | 38 | 1008.3 |
| 20260505233859 | 78 | 51 | 2.0 | 8.0 | 0.00 | 0.00 | 0.00 | 38 | 1008.3 |
| 20260505233349 | 78 | 178 | 2.0 | 8.0 | 0.00 | 0.00 | 0.00 | 37 | 1008.2 |
| 20260505233328 | 78 | 66 | 2.0 | 7.0 | 0.00 | 0.00 | 0.00 | 37 | 1008.1 |
| 20260505232336 | 78 | 145 | 2.0 | 7.0 | 0.00 | 0.00 | 0.00 | 37 | 1008.1 |
| 20260505231827 | 78 | 342 | 2.0 | 7.0 | 0.00 | 0.00 | 0.00 | 36 | 1008.1 |
| 20260505231320 | 78 | 150 | 2.0 | 7.0 | 0.00 | 0.00 | 0.00 | 37 | 1008.0 |
| 20260505231035 | 78 | 169 | 2.0 | 10.0 | 0.00 | 0.00 | 0.00 | 36 | 1008.0 |
| 20260505230305 | 79 | 237 | 2.0 | 10.0 | 0.00 | 0.00 | 0.00 | 35 | 1008.0 |
| 20260505225759 | 79 | 40 | 3.0 | 11.0 | 0.00 | 0.00 | 0.00 | 35 | 1007.9 |
| 20260505225254 | 79 | 171 | 2.0 | 11.0 | 0.00 | 0.00 | 0.00 | 34 | 1007.6 |
| 20260505224743 | 80 | 37 | 2.0 | 9.0 | 0.00 | 0.00 | 0.00 | 35 | 1007.8 |
| 20260505224236 | 80 | 178 | 2.0 | 11.0 | 0.00 | 0.00 | 0.00 | 34 | 1007.7 |
| 20260505223732 | 80 | 233 | 2.0 | 11.0 | 0.00 | 0.00 | 0.00 | 34 | 1007.7 |
| 20260505223221 | 80 | 192 | 3.0 | 10.0 | 0.00 | 0.00 | 0.00 | 34 | 1007.6 |
| 20260505222714 | 80 | 205 | 3.0 | 10.0 | 0.00 | 0.00 | 0.00 | 34 | 1007.6 |
| 20260505222211 | 80 | 158 | 3.0 | 11.0 | 0.00 | 0.00 | 0.00 | 33 | 1007.6 |
| 20260505221659 | 80 | 39 | 3.0 | 11.0 | 0.00 | 0.00 | 0.00 | 33 | 1007.6 |
| 20260505221153 | 81 | 48 | 3.0 | 11.0 | 0.00 | 0.00 | 0.00 | 33 | 1007.5 |
| 20260505220652 | 80 | 282 | 3.0 | 11.0 | 0.00 | 0.00 | 0.00 | 33 | 1007.4 |
| 20260505220149 | 81 | 211 | 3.0 | 8.0 | 0.00 | 0.00 | 0.00 | 34 | 1007.5 |
| 20260505215649 | 81 | 35 | 3.0 | 8.0 | 0.00 | 0.00 | 0.00 | 34 | 1007.5 |
| 20260505215149 | 81 | 88 | 3.0 | 10.0 | 0.00 | 0.00 | 0.00 | 35 | 1007.3 |
| 20260505214646 | 80 | 147 | 3.0 | 10.0 | 0.00 | 0.00 | 0.00 | 34 | 1007.2 |
| 20260505214411 | 80 | 61 | 3.0 | 10.0 | 0.00 | 0.00 | 0.00 | 34 | 1007.2 |
| 20260505213909 | 81 | 53 | 3.0 | 12.0 | 0.00 | 0.00 | 0.00 | 34 | 1007.3 |
| 20260505213147 | 81 | 105 | 3.0 | 12.0 | 0.00 | 0.00 | 0.00 | 35 | 1007.3 |
| 20260505212646 | 81 | 161 | 3.0 | 13.0 | 0.00 | 0.00 | 0.00 | 35 | 1007.0 |
| 20260505212146 | 81 | 42 | 4.0 | 14.0 | 0.00 | 0.00 | 0.00 | 35 | 1006.8 |
| 20260505211646 | 81 | 326 | 4.0 | 14.0 | 0.00 | 0.00 | 0.00 | 35 | 1006.7 |
| 20260505211405 | 81 | 237 | 4.0 | 12.0 | 0.00 | 0.00 | 0.00 | 33 | 1007.0 |
| 20260505210649 | 82 | 182 | 4.0 | 11.0 | 0.00 | 0.00 | 0.00 | 32 | 1007.1 |
| 20260505210201 | 82 | 34 | 4.0 | 16.0 | 0.00 | 0.00 | 0.00 | 33 | 1007.0 |
| 20260505205643 | 82 | 57 | 5.0 | 16.0 | 0.00 | 0.00 | 0.00 | 33 | 1006.9 |
| 20260505205146 | 82 | 217 | 4.0 | 15.0 | 0.00 | 0.00 | 0.00 | 33 | 1006.8 |
| 20260505204644 | 82 | 62 | 3.0 | 15.0 | 0.00 | 0.00 | 0.00 | 33 | 1007.0 |
| 20260505204145 | 82 | 179 | 4.0 | 15.0 | 0.00 | 0.00 | 0.00 | 34 | 1007.1 |
| 20260505203646 | 81 | 57 | 3.0 | 15.0 | 0.00 | 0.00 | 0.00 | 34 | 1007.1 |
| 20260505203143 | 81 | 58 | 3.0 | 13.0 | 0.00 | 0.00 | 0.00 | 36 | 1007.1 |
| 20260505202641 | 81 | 66 | 4.0 | 18.0 | 0.00 | 0.00 | 0.00 | 34 | 1007.0 |
| 20260505202405 | 82 | 24 | 4.0 | 18.0 | 0.00 | 0.00 | 0.00 | 36 | 1007.1 |
| 20260505201640 | 82 | 217 | 4.0 | 18.0 | 0.00 | 0.00 | 0.00 | 35 | 1007.1 |
| 20260505201140 | 82 | 80 | 4.0 | 18.0 | 0.00 | 0.00 | 0.00 | 33 | 1007.3 |
| 20260505200640 | 82 | 247 | 4.0 | 13.0 | 0.00 | 0.00 | 0.00 | 34 | 1007.2 |
| 20260505200143 | 82 | 242 | 4.0 | 13.0 | 0.00 | 0.00 | 0.00 | 36 | 1007.1 |
| 20260505195640 | 82 | 346 | 3.0 | 13.0 | 0.00 | 0.00 | 0.00 | 36 | 1007.2 |
| 20260505195403 | 83 | 52 | 3.0 | 18.0 | 0.00 | 0.00 | 0.00 | 34 | 1007.3 |
| 20260505194641 | 83 | 182 | 2.0 | 18.0 | 0.00 | 0.00 | 0.00 | 35 | 1007.2 |
| 20260505194627 | 83 | 182 | 3.0 | 18.0 | 0.00 | 0.00 | 0.00 | 36 | 1007.3 |
| 20260505193640 | 83 | 0 | 3.0 | 18.0 | 0.00 | 0.00 | 0.00 | 34 | 1007.3 |
| 20260505193400 | 83 | 51 | 3.0 | 19.0 | 0.00 | 0.00 | 0.00 | 34 | 1007.4 |
| 20260505192640 | 83 | 82 | 4.0 | 19.0 | 0.00 | 0.00 | 0.00 | 36 | 1007.6 |
| 20260505192141 | 83 | 242 | 4.0 | 19.0 | 0.00 | 0.00 | 0.00 | 35 | 1007.7 |
| 20260505191640 | 83 | 286 | 4.0 | 19.0 | 0.00 | 0.00 | 0.00 | 36 | 1007.7 |